Flag for Germany Weather past 2 weeks in Geesthacht, Schleswig-Holstein, Germany

Now
55 °F

Sprinkles. Scattered clouds.


Feels Like: 52 °F
Forecast: 46 / 56 °F
Wind: 13 mph from West

Location: Hamburg-Fuhlsbuettel

Current Time: Oct 20, 2014 at 10:30:31 AM

Latest Report: Oct 20, 2014 at 9:50 AM


Visibility: 6 mi

Pressure: 29.83 "Hg

Humidity: 94%

Dew point: 54 °F

Location of GeesthachtLocation

Historic Weather in Geesthacht — Graph

°F

Geesthacht temperature yesterday

Maximum temperature yesterday: 72 °F (at 1:50 PM)
Minimum temperature yesterday: 59 °F (at 12:20 AM)
Average temperature yesterday: 64 °F

Past Weeks' High & Low Weather Summary

 TemperatureHumidityPressure
High72 °F (Oct 19, 1:50 PM)100% (Oct 7, 1:50 PM)30.12 "Hg (Oct 7, 1:50 PM)
Low48 °F (Oct 8, 6:50 AM)59% (Oct 6, 7:20 PM)29.50 "Hg (Oct 7, 2:20 PM)
Average57 °F86%29.82 "Hg
* Reported Oct 5 9:20 AM — Oct 20 9:20 AM, Geesthacht, Weather by CustomWeather, © 2014

Note: Actual official high and low records may vary slightly from our data, if they occured in-between our weather recording intervals... More about our weather records

Advertising

Geesthacht weather history for previous 24 hours

 ConditionsComfort  
Time TempWeatherWind HumidityBarometerVisibility
9:20 AM
Oct 20
55 °FSprinkles. Partly sunny.15 mph100%29.83 "Hg4 mi
8:50 AM55 °FRain showers. Passing clouds.14 mph94%29.83 "Hg4 mi
8:20 AM57 °FSprinkles. Passing clouds.14 mph88%29.80 "Hg6 mi
7:50 AM57 °FPassing clouds.14 mph88%29.80 "HgN/A
7:20 AM57 °FPartly cloudy.14 mph88%29.80 "HgN/A
6:50 AM57 °FPartly cloudy.16 mph88%29.80 "HgN/A
5:20 AM59 °FPassing clouds.15 mph82%29.80 "HgN/A
4:50 AM57 °FPartly cloudy.13 mph94%29.80 "HgN/A
4:20 AM57 °FRain showers. Partly cloudy.17 mph94%29.80 "Hg4 mi
3:50 AM59 °FSprinkles. Passing clouds.12 mph88%29.80 "HgN/A
3:20 AM59 °FPassing clouds.15 mph82%29.80 "HgN/A
2:50 AM59 °FPassing clouds.14 mph82%29.83 "HgN/A
2:20 AM59 °FPassing clouds.12 mph82%29.83 "HgN/A
1:50 AM59 °FPassing clouds.13 mph82%29.83 "HgN/A
1:20 AM59 °FPassing clouds.13 mph82%29.83 "HgN/A
12:50 AM59 °FPassing clouds.12 mph88%29.83 "HgN/A
12:20 AM59 °FPassing clouds.13 mph88%29.83 "HgN/A
11:50 PM
Oct 19
59 °FPassing clouds.12 mph88%29.83 "HgN/A
11:20 PM61 °FPassing clouds.13 mph83%29.83 "HgN/A
10:50 PM61 °FPassing clouds.10 mph83%29.83 "HgN/A
10:20 PM61 °FPassing clouds.9 mph83%29.83 "HgN/A
9:50 PM61 °FPassing clouds.12 mph83%29.83 "HgN/A
9:20 PM63 °FPartly cloudy.10 mph77%29.80 "HgN/A
8:50 PM63 °FPartly cloudy.13 mph83%29.80 "HgN/A
8:20 PM63 °FClear.12 mph77%29.80 "Hg10 mi
7:50 PM64 °FPassing clouds.12 mph78%29.80 "HgN/A
7:20 PM64 °FPassing clouds.12 mph78%29.80 "HgN/A
6:50 PM64 °FPartly sunny.12 mph83%29.80 "HgN/A
6:20 PM64 °FLight rain. Broken clouds.15 mph83%29.80 "HgN/A
5:50 PM64 °FLight rain. Partly sunny.22 mph83%29.80 "HgN/A
5:20 PM70 °FPartly sunny.17 mph69%29.80 "HgN/A
4:50 PM70 °FPartly sunny.14 mph69%29.80 "HgN/A
4:20 PM72 °FPartly sunny.16 mph65%29.80 "HgN/A
3:50 PM72 °FPartly sunny.15 mph69%29.80 "HgN/A
3:20 PM72 °FBroken clouds.20 mph69%29.83 "HgN/A
2:50 PM72 °FBroken clouds.18 mph65%29.83 "HgN/A
2:20 PM72 °FPassing clouds.21 mph65%29.83 "HgN/A
1:50 PM72 °FPassing clouds.22 mph69%29.83 "HgN/A
1:20 PM70 °FSunny.16 mph73%29.86 "Hg10 mi
12:50 PM70 °FSunny.17 mph73%29.86 "Hg10 mi
12:20 PM68 °FSunny.16 mph78%29.89 "Hg10 mi
11:50 AM66 °FSunny.13 mph78%29.89 "Hg10 mi
11:20 AM66 °FSunny.14 mph78%29.92 "Hg10 mi
10:50 AM64 °FSunny.14 mph83%29.92 "Hg10 mi
10:20 AM64 °FSunny.13 mph83%29.92 "Hg10 mi
Weather by CustomWeather, © 2014

See weather overviewHow to use our weather pages